Kansai, Japan

7:47 PM JST on May 28, 2017 (GMT +0900)
Kansai International

Weather History for RJBB - November, 2013

Change the Weather History Date:

Thursday, November 7, 2013

  Actual Average Record
Temperature  
Mean Temperature 66 °F -  
Max Temperature 71 °F 59 °F 73 °F (2003)
Min Temperature 60 °F 49 °F 46 °F (2002)
Growing Degree Days 16 (Base 50)    
Moisture  
Dew Point 51 °F    
Average Humidity 62    
Maximum Humidity 82    
Minimum Humidity 33    
Precipitation  
Precipitation 0.00 in - - ()
Sea Level Pressure  
Sea Level Pressure 30.00 in    
Wind  
Wind Speed 8 mph ()    
Max Wind Speed 17 mph    
Max Gust Speed -    
Visibility 6.1 miles    
Events Rain    
Averages and records for this station are not official NWS values.
T = Trace of Precipitation, MM = Missing Value Source: Averaged Metar Reports

Daily Weather History Graph

Daily Weather History Graph

Search for Another Location

Airport or City:

Trip Planner

Search our weather history database for the weather conditions in past years. The results will help you decide how hot, cold, wet, or windy it might be!

Date:

Astronomy

Nov. 07, 2013 Rise Set
Actual Time 6:24 AM JST 5:00 PM JST
Civil Twilight 5:58 AM JST 5:26 PM JST
Nautical Twilight 5:28 AM JST 5:56 PM JST
Astronomical Twilight 4:58 AM JST 6:26 PM JST
Moon 9:57 AM JST (11/7) 8:32 PM JST (11/7)
Length of Visible Light 11h 28m
Length of Day
10h 36m
Waxing Crescent, 17% of the Moon is Illuminated
Nov 7
Waxing Crescent
Nov 10
First Quarter
Nov 18
Full
Nov 26
Last Quarter
Dec 3
New

Hourly Weather History & Observations

Time (JST) Temp. Dew Point Humidity Pressure Visibility Wind Dir Wind Speed Gust Speed Precip Events Conditions
12:00 AM 62.6 °F 51.8 °F 68% 30.09 in 6.2 mi NE 8.1 mph - N/A Rain Light Rain Showers
12:30 AM 62.6 °F 53.6 °F 72% 30.06 in 5.6 mi NE 6.9 mph - N/A Rain Light Rain Showers
1:00 AM 62.6 °F 53.6 °F 72% 30.04 in 6.2 mi ESE 6.9 mph - N/A Rain Light Rain Showers
1:30 AM 62.6 °F 53.6 °F 72% 30.04 in 6.2 mi East 4.6 mph - N/A   Mostly Cloudy
2:00 AM 60.8 °F 55.4 °F 82% 30.04 in 6.2 mi NE 6.9 mph - N/A   Mostly Cloudy
2:30 AM 60.8 °F 55.4 °F 82% 30.01 in 6.2 mi NNE 4.6 mph - N/A   Mostly Cloudy
3:00 AM 62.6 °F 53.6 °F 72% 30.01 in 6.2 mi NE 8.1 mph - N/A   Mostly Cloudy
3:30 AM 62.6 °F 55.4 °F 77% 30.01 in 6.2 mi NE 8.1 mph - N/A   Mostly Cloudy
4:00 AM 60.8 °F 55.4 °F 82% 29.98 in 6.2 mi NE 6.9 mph - N/A Rain Light Rain Showers
4:30 AM 62.6 °F 53.6 °F 72% 29.98 in 6.2 mi East 3.5 mph - N/A Rain Light Rain Showers
5:00 AM 60.8 °F 53.6 °F 77% 29.98 in 6.2 mi ENE 4.6 mph - N/A   Mostly Cloudy
5:30 AM 60.8 °F 55.4 °F 82% 29.98 in 6.2 mi ENE 4.6 mph - N/A   Mostly Cloudy
6:00 AM 60.8 °F 55.4 °F 82% 29.98 in 6.2 mi NE 4.6 mph - N/A   Mostly Cloudy
6:30 AM 62.6 °F 55.4 °F 77% 29.98 in 6.2 mi ENE 5.8 mph - N/A   Mostly Cloudy
7:00 AM 62.6 °F 57.2 °F 82% 29.95 in 6.2 mi East 3.5 mph - N/A   Mostly Cloudy
7:30 AM 62.6 °F 57.2 °F 82% 29.98 in 6.2 mi East 3.5 mph - N/A   Mostly Cloudy
8:00 AM 62.6 °F 57.2 °F 82% 29.98 in 5.6 mi Variable 1.2 mph - N/A   Mostly Cloudy
8:30 AM 64.4 °F 57.2 °F 77% 29.98 in 5.0 mi ENE 3.5 mph - N/A   Mostly Cloudy
9:00 AM 64.4 °F 57.2 °F 77% 29.98 in 5.0 mi Variable 1.2 mph - N/A   Mostly Cloudy
9:30 AM 64.4 °F 55.4 °F 73% 29.98 in 5.6 mi SE 2.3 mph - N/A   Mostly Cloudy
10:00 AM 64.4 °F 57.2 °F 77% 29.98 in 5.6 mi Variable 1.2 mph - N/A   Mostly Cloudy
10:30 AM 66.2 °F 57.2 °F 73% 29.98 in 6.2 mi SW 4.6 mph - N/A   Mostly Cloudy
11:00 AM 66.2 °F 59.0 °F 78% 29.98 in 6.2 mi WSW 5.8 mph - N/A   Mostly Cloudy
11:30 AM 68.0 °F 59.0 °F 73% 29.98 in 6.2 mi WSW 9.2 mph - N/A   Mostly Cloudy
12:00 PM 69.8 °F 59.0 °F 68% 29.95 in 6.2 mi WSW 12.7 mph - N/A   Mostly Cloudy
12:30 PM 69.8 °F 53.6 °F 56% 29.95 in 6.2 mi West 17.3 mph - N/A   Scattered Clouds
1:00 PM 71.6 °F 55.4 °F 57% 29.95 in 6.2 mi West 15.0 mph - N/A   Partly Cloudy
1:30 PM 71.6 °F 55.4 °F 57% 29.95 in 6.2 mi West 16.1 mph - N/A   Partly Cloudy
2:00 PM 71.6 °F 53.6 °F 53% 29.95 in 6.2 mi West 12.7 mph - N/A   Partly Cloudy
2:30 PM 69.8 °F 51.8 °F 53% 29.95 in 6.2 mi West 15.0 mph - N/A   Mostly Cloudy
3:00 PM 68.0 °F 50.0 °F 52% 29.95 in 6.2 mi West 12.7 mph - N/A   Mostly Cloudy
3:30 PM 69.8 °F 50.0 °F 49% 29.95 in 6.2 mi West 13.8 mph - N/A   Partly Cloudy
4:00 PM 68.0 °F 50.0 °F 52% 29.95 in 6.2 mi WSW 12.7 mph - N/A   Partly Cloudy
4:30 PM 69.8 °F 51.8 °F 53% 29.98 in 6.2 mi West 15.0 mph - N/A   Partly Cloudy
5:00 PM 68.0 °F 51.8 °F 56% 29.98 in 6.2 mi West 13.8 mph - N/A   Partly Cloudy
5:30 PM 68.0 °F 51.8 °F 56% 29.98 in 6.2 mi West 12.7 mph - N/A   Partly Cloudy
6:00 PM 68.0 °F 42.8 °F 40% 30.01 in 6.2 mi WNW 11.5 mph - N/A   Partly Cloudy
6:30 PM 68.0 °F 39.2 °F 35% 30.01 in 6.2 mi NW 12.7 mph - N/A   Partly Cloudy
7:00 PM 68.0 °F 37.4 °F 33% 30.04 in 6.2 mi NW 12.7 mph - N/A   Partly Cloudy
7:30 PM 68.0 °F 39.2 °F 35% 30.04 in 6.2 mi NW 15.0 mph - N/A   Partly Cloudy
8:00 PM 66.2 °F 39.2 °F 37% 30.04 in 6.2 mi NW 13.8 mph - N/A   Partly Cloudy
8:30 PM 66.2 °F 37.4 °F 35% 30.06 in 6.2 mi NNW 16.1 mph - N/A   Partly Cloudy
9:00 PM 64.4 °F 41.0 °F 42% 30.06 in 6.2 mi NNW 12.7 mph - N/A   Partly Cloudy
9:30 PM 64.4 °F 39.2 °F 40% 30.06 in 6.2 mi NNW 11.5 mph - N/A   Partly Cloudy
10:00 PM 64.4 °F 39.2 °F 40% 30.09 in 6.2 mi NNW 12.7 mph - N/A   Partly Cloudy
10:30 PM 64.4 °F 39.2 °F 40% 30.09 in 6.2 mi NNW 12.7 mph - N/A   Partly Cloudy
11:00 PM 64.4 °F 41.0 °F 42% 30.09 in 6.2 mi NW 13.8 mph - N/A   Partly Cloudy
11:30 PM 64.4 °F 37.4 °F 37% 30.09 in 6.2 mi NNW 11.5 mph - N/A   Partly Cloudy